Wind_Speed
16 16 15 15 14 14 14 14 13 13 13 13 12 12 12 12 12 12 12 11 11 10 10 9 9 8 8 8 7 7 7 6 7 6 6 5 5 5 4 4 3 2 2
17 17 17 17 17 16 15 15 15 14 14 14 14 14 13 13 13 13 13 13 12 12 12 11 10 10 9 9 8 8 8 7 7 7 7 7 6 6 6 5 5 4 3
19 19 18 18 18 18 18 17 17 16 16 16 16 15 15 15 15 15 15 14 14 14 13 13 12 11 11 11 10 9 9 8 8 8 8 8 8 7 7 7 6 5 5
20 20 20 20 20 20 20 19 19 18 18 18 17 17 17 17 17 17 17 17 16 15 15 15 14 13 12 12 12 11 10 10 10 9 10 9 9 9 8 8 8 7 6
21 21 21 21 21 22 22 21 21 20 20 19 19 19 19 19 19 19 18 19 18 18 17 17 16 15 14 14 14 13 12 12 11 11 11 11 11 10 10 10 9 9 8
22 22 22 23 23 23 23 23 23 22 22 22 21 21 20 20 20 20 20 21 20 20 19 18 18 17 17 16 16 15 15 14 13 13 13 13 13 13 12 12 11 11 10
22 23 23 24 24 24 24 25 25 24 24 24 24 23 23 22 22 22 22 22 22 22 21 20 20 19 19 18 17 17 16 16 16 15 15 15 15 15 14 14 13 13 12
23 24 24 24 25 25 25 25 26 26 26 26 26 26 25 25 24 25 24 24 24 24 23 23 22 21 21 21 20 19 18 18 17 18 17 17 17 16 16 15 15 14 14
24 24 24 25 26 26 26 26 27 27 28 28 27 28 27 27 27 26 27 26 26 26 25 25 25 23 22 22 22 22 21 20 20 19 19 18 18 18 18 17 17 16 16
26 26 26 26 26 27 27 28 29 29 29 29 30 29 29 29 29 28 28 28 28 28 27 27 26 25 25 24 24 23 24 23 22 22 21 21 20 20 20 20 19 19 19
28 28 29 29 29 28 29 29 30 30 31 31 31 31 31 31 31 31 30 30 30 30 29 28 27 27 26 26 26 25 25 25 25 24 24 23 23 22 22 22 22 21 21
30 30 30 31 31 31 31 31 31 32 32 32 33 32 33 33 32 32 32 32 32 31 30 30 29 28 28 27 28 27 27 26 26 26 26 25 25 25 25 25 24 24 24
31 31 31 32 33 33 33 33 33 33 33 33 34 34 34 34 34 34 34 33 33 33 32 31 31 30 30 29 29 29 28 28 28 27 27 27 27 27 27 27 26 26 25
33 33 33 34 34 35 35 35 34 35 35 34 35 35 35 35 36 36 36 36 36 35 35 34 34 33 32 32 32 31 30 30 30 29 29 29 28 28 27 27 28 27 26
35 35 35 36 35 36 36 36 35 36 36 36 36 36 36 37 37 38 39 38 38 37 36 36 36 35 34 33 34 33 32 32 32 32 32 31 30 30 29 29 29 29 28
36 37 37 37 37 37 37 37 37 37 37 38 38 38 37 38 38 39 40 40 40 39 39 39 38 38 37 36 35 35 35 34 34 34 33 32 32 31 31 31 31 30 30
36 37 38 38 39 39 39 39 39 38 38 39 39 40 39 40 40 41 42 42 41 41 41 41 41 40 39 38 37 37 37 36 36 36 35 35 34 33 33 33 33 33 33
37 38 39 39 40 40 40 40 41 41 41 41 41 41 41 42 42 43 44 43 43 42 42 42 42 41 41 40 39 38 39 38 38 37 37 36 36 35 35 35 34 34 34
38 39 39 40 40 41 42 43 43 44 44 44 44 44 43 44 44 45 45 45 45 45 44 44 43 43 43 42 41 40 40 40 39 39 38 38 38 37 37 36 36 35 35
39 40 40 41 41 42 43 44 44 44 45 46 46 47 47 46 46 47 47 47 47 47 47 46 46 45 45 45 44 43 42 42 41 40 40 39 39 39 39 39 39 38 37
40 40 41 41 42 43 43 44 44 45 46 47 47 48 49 48 48 47 48 49 50 50 49 49 48 47 47 47 46 46 45 44 43 41 41 40 40 41 41 41 41 40 40
41 41 42 42 42 43 44 44 45 46 46 47 47 48 48 49 49 48 48 48 50 51 51 51 50 49 48 48 48 47 46 46 45 44 43 43 43 43 43 43 43 43 43
41 42 42 42 42 43 44 44 44 46 47 47 47 47 48 48 49 49 49 49 50 51 52 53 52 51 50 50 50 50 48 48 48 48 47 46 46 46 46 46 45 45 45
42 43 42 43 43 43 43 43 43 44 45 46 46 46 47 48 49 50 49 50 50 51 52 53 53 52 52 52 52 52 51 50 50 50 49 49 49 49 49 48 48 48 47
43 43 43 44 44 45 45 44 43 43 43 44 45 46 47 48 49 50 49 50 51 52 53 55 55 54 53 53 53 52 52 52 51 52 52 51 51 51 51 51 50 50 49
42 43 44 44 45 45 45 45 45 43 43 43 45 45 47 48 49 50 49 49 51 52 54 55 56 56 55 54 54 53 53 53 52 52 52 52 52 52 52 53 52 52 51
Wind_Direction
243 242 241 240 240 241 242 241 241 241 240 238 234 231 227 226 227 226 225 225 224 223 224 225 219 215 210 205 202 205 207 207 207 207 209 211 214 211 207 201 200 207 210
243 243 243 243 243 244 244 244 243 242 242 239 237 235 231 229 229 229 230 229 228 227 226 225 223 220 218 215 216 215 213 214 214 215 216 219 221 220 222 223 222 228 226
244 243 245 245 245 245 245 245 246 245 244 241 237 236 235 233 232 232 231 232 229 227 225 225 225 224 223 221 220 221 221 221 222 225 226 226 227 227 230 234 235 236 236
246 244 245 246 247 247 246 245 246 246 244 243 240 237 236 236 235 235 234 234 232 230 228 228 228 227 228 229 228 228 228 229 230 233 233 233 233 235 237 238 239 239 239
249 248 248 248 248 248 248 247 248 248 248 245 243 239 238 237 237 237 235 234 233 231 230 230 232 232 233 234 235 234 234 235 236 236 236 238 239 240 242 242 243 244 245
251 252 251 251 250 249 249 249 249 249 249 248 246 242 240 239 239 238 236 235 235 234 233 233 235 235 235 236 237 238 239 240 241 240 239 240 241 243 244 245 246 246 247
251 251 253 251 250 251 251 250 249 249 248 248 247 245 243 241 242 241 238 238 238 236 233 235 237 237 237 237 238 240 242 243 244 244 243 243 244 245 246 247 247 248 249
253 253 253 252 251 252 252 251 250 249 248 248 247 245 244 243 243 242 240 239 239 239 236 236 237 239 239 240 240 242 243 244 245 245 246 247 246 247 248 248 249 249 251
254 254 254 254 253 254 254 252 250 249 248 247 247 245 244 243 243 243 242 241 241 240 239 239 240 240 241 242 242 243 244 245 246 247 248 248 248 248 249 249 249 249 250
255 256 256 256 256 256 256 253 251 250 249 247 246 245 244 243 243 244 243 242 242 241 241 241 242 241 242 244 245 245 245 246 247 248 249 249 250 249 250 250 250 250 250
256 257 257 257 257 257 256 255 252 250 249 247 246 246 245 244 244 244 244 243 243 242 241 241 242 243 243 244 244 245 247 247 246 247 249 251 252 252 251 251 251 252 252
256 257 258 257 257 257 257 256 254 252 250 249 247 247 246 245 244 244 246 246 244 243 242 243 242 243 244 244 245 246 247 247 249 249 250 251 251 252 253 252 252 253 253
256 257 258 259 258 257 256 256 255 252 250 250 248 247 247 247 246 245 246 246 246 246 244 244 243 244 244 245 246 247 248 248 249 251 251 251 252 253 254 253 252 253 252
256 258 258 259 259 257 256 254 255 252 250 249 248 247 246 247 247 247 247 247 246 245 244 244 244 244 245 246 247 248 249 249 250 250 251 252 253 253 253 253 252 253 253
256 258 258 259 259 258 257 256 254 253 251 250 250 249 249 247 247 248 247 246 245 244 244 245 246 245 245 245 248 249 251 252 251 250 251 253 253 253 253 252 252 253 253
257 258 258 258 258 258 257 256 255 254 252 251 251 250 250 249 249 248 247 247 246 246 246 246 247 246 245 245 247 249 251 252 252 252 251 252 254 254 252 252 252 253 254
258 259 259 258 258 258 257 257 256 254 253 251 251 250 250 249 248 248 249 249 247 246 246 246 247 247 246 246 247 249 250 252 253 253 252 252 253 253 253 253 253 254 255
258 258 258 258 258 258 258 258 257 255 255 254 251 251 250 249 248 249 249 248 247 247 247 247 247 247 247 247 248 249 250 251 253 253 253 253 253 253 253 253 254 255 256
258 258 258 258 258 258 257 257 258 258 257 256 254 252 252 250 249 249 249 249 248 248 248 247 248 248 248 247 248 250 251 251 252 253 253 254 253 253 254 254 254 256 257
258 258 259 258 258 258 258 257 258 259 259 258 256 255 253 252 250 250 249 249 249 248 248 248 248 248 249 248 249 250 251 251 252 252 253 254 253 253 253 254 254 255 256
259 259 259 259 259 259 258 259 258 259 259 259 258 256 255 254 252 250 250 250 249 248 248 247 248 249 250 250 250 251 252 251 251 252 253 254 254 253 254 254 254 255 256
259 259 259 259 261 260 259 259 259 258 259 258 257 256 255 253 253 252 251 250 249 248 248 247 248 249 250 251 251 251 252 252 252 252 253 253 254 254 254 254 255 255 256
260 259 260 260 261 261 260 260 260 260 258 256 255 255 255 254 253 253 253 252 250 249 248 248 248 249 249 250 251 251 252 253 253 253 254 254 253 254 254 255 256 256 257
259 259 259 259 260 260 260 260 261 260 258 257 256 256 255 254 253 253 253 254 252 250 249 249 248 249 250 250 251 251 252 253 253 253 254 254 255 255 255 255 256 256 256
259 259 259 259 259 260 260 261 261 259 258 257 256 256 256 255 254 254 254 254 253 251 250 250 249 250 251 251 251 251 252 252 253 253 253 254 255 255 256 255 256 256 256
259 259 259 259 259 260 261 260 260 259 258 256 255 256 256 255 255 255 254 255 254 252 251 250 249 250 252 251 251 251 252 252 253 254 253 253 254 255 255 256 256 256 257
Height
5842 5842 5843 5844 5845 5846 5847 5847 5848 5849 5849 5850 5850 5851 5851 5852 5853 5853 5854 5854 5855 5855 5856 5857 5857 5858 5858 5859 5859 5860 5860 5861 5861 5861 5862 5862 5862 5863 5863 5863 5863 5863 5863
5838 5839 5840 5841 5842 5843 5844 5845 5845 5846 5847 5847 5848 5849 5849 5850 5851 5851 5852 5852 5853 5854 5854 5855 5856 5856 5857 5858 5858 5859 5859 5860 5860 5861 5861 5861 5862 5862 5862 5862 5862 5862 5862
5835 5836 5837 5838 5839 5840 5841 5842 5842 5843 5844 5845 5846 5846 5847 5848 5848 5849 5849 5850 5851 5851 5852 5853 5854 5855 5855 5856 5857 5857 5858 5859 5859 5860 5860 5860 5861 5861 5861 5862 5862 5862 5862
5831 5832 5833 5835 5836 5836 5837 5838 5839 5840 5841 5842 5842 5843 5844 5845 5845 5846 5847 5847 5848 5849 5850 5850 5852 5852 5853 5854 5855 5856 5856 5857 5858 5858 5859 5859 5859 5860 5860 5861 5861 5861 5861
5827 5828 5830 5831 5832 5833 5834 5834 5835 5836 5837 5838 5839 5840 5841 5841 5842 5843 5844 5844 5845 5846 5847 5848 5849 5850 5851 5852 5853 5853 5854 5855 5855 5856 5857 5857 5858 5858 5859 5859 5859 5859 5860
5823 5824 5825 5826 5828 5829 5830 5830 5831 5832 5833 5834 5835 5836 5837 5838 5838 5839 5840 5841 5842 5843 5844 5845 5846 5847 5848 5849 5850 5851 5852 5852 5853 5854 5854 5855 5855 5856 5856 5857 5857 5857 5858
5819 5820 5821 5822 5823 5824 5825 5826 5827 5827 5828 5829 5830 5831 5832 5833 5834 5835 5836 5837 5838 5839 5840 5841 5842 5843 5845 5846 5847 5848 5849 5849 5850 5851 5851 5852 5853 5853 5854 5854 5855 5855 5855
5814 5815 5816 5816 5818 5819 5819 5820 5821 5822 5823 5824 5825 5826 5827 5828 5830 5831 5832 5833 5834 5835 5836 5837 5838 5840 5841 5842 5843 5844 5845 5846 5847 5847 5848 5849 5849 5850 5851 5851 5852 5852 5853
5809 5810 5811 5811 5812 5813 5814 5815 5815 5816 5817 5818 5819 5820 5821 5822 5824 5825 5827 5828 5829 5830 5831 5833 5834 5835 5837 5838 5839 5840 5841 5842 5843 5844 5844 5845 5846 5847 5848 5848 5849 5849 5850
5803 5804 5805 5806 5806 5807 5808 5808 5809 5810 5811 5812 5813 5814 5815 5816 5818 5820 5821 5822 5824 5825 5826 5828 5829 5830 5832 5833 5835 5836 5836 5837 5839 5839 5840 5841 5842 5843 5844 5844 5845 5846 5846
5797 5798 5798 5799 5800 5800 5801 5801 5802 5803 5804 5805 5806 5807 5809 5810 5811 5813 5815 5816 5818 5819 5820 5822 5824 5825 5827 5828 5830 5831 5832 5832 5834 5835 5836 5837 5838 5838 5839 5840 5841 5842 5842
5790 5790 5791 5792 5792 5793 5793 5794 5794 5795 5796 5797 5799 5800 5801 5803 5804 5806 5808 5809 5811 5812 5814 5816 5818 5819 5821 5822 5824 5825 5826 5827 5828 5829 5831 5832 5833 5834 5834 5835 5836 5837 5838
5782 5783 5783 5784 5784 5785 5785 5786 5787 5787 5788 5789 5790 5792 5793 5795 5797 5799 5800 5802 5804 5806 5807 5809 5811 5813 5815 5816 5818 5819 5820 5822 5823 5824 5825 5826 5827 5828 5829 5830 5831 5832 5832
5774 5774 5775 5775 5776 5776 5777 5778 5778 5779 5780 5781 5782 5783 5785 5786 5788 5790 5792 5794 5796 5798 5800 5802 5804 5806 5808 5810 5811 5813 5814 5815 5817 5818 5819 5820 5821 5822 5823 5824 5825 5826 5827
5765 5766 5766 5767 5767 5768 5768 5769 5770 5771 5772 5773 5774 5775 5776 5778 5779 5781 5784 5786 5788 5790 5793 5794 5797 5798 5800 5802 5804 5806 5807 5808 5810 5811 5813 5814 5815 5816 5817 5818 5819 5820 5821
5756 5757 5757 5758 5758 5759 5760 5760 5761 5762 5763 5764 5765 5766 5767 5769 5770 5772 5774 5777 5779 5781 5784 5786 5788 5790 5792 5794 5796 5798 5799 5801 5802 5804 5805 5807 5808 5809 5810 5812 5813 5813 5814
5747 5748 5748 5749 5749 5750 5750 5751 5752 5753 5754 5755 5756 5757 5758 5760 5761 5763 5765 5767 5769 5772 5774 5777 5779 5782 5784 5786 5788 5790 5791 5793 5794 5796 5797 5799 5800 5802 5803 5804 5806 5806 5807
5737 5737 5738 5739 5740 5740 5741 5741 5742 5743 5744 5745 5746 5747 5748 5750 5752 5753 5755 5757 5759 5762 5765 5768 5770 5772 5775 5777 5779 5781 5782 5784 5786 5787 5789 5791 5792 5794 5795 5797 5798 5799 5800
5727 5727 5728 5729 5730 5730 5730 5731 5732 5733 5733 5734 5735 5736 5737 5739 5741 5743 5745 5747 5749 5752 5755 5757 5760 5762 5765 5767 5770 5771 5773 5775 5777 5778 5780 5782 5783 5785 5787 5788 5790 5791 5792
5716 5717 5718 5718 5719 5719 5719 5719 5721 5721 5722 5723 5723 5724 5726 5727 5729 5731 5733 5735 5738 5741 5744 5747 5749 5752 5754 5757 5759 5761 5763 5765 5767 5769 5771 5772 5774 5776 5777 5779 5781 5782 5783
5706 5706 5707 5708 5708 5708 5708 5708 5709 5710 5710 5711 5711 5712 5713 5715 5717 5718 5721 5723 5726 5729 5732 5735 5738 5741 5744 5746 5749 5751 5753 5755 5757 5759 5761 5763 5764 5766 5767 5769 5771 5772 5774
5695 5696 5696 5696 5697 5697 5697 5697 5697 5697 5698 5698 5698 5699 5701 5703 5704 5706 5708 5711 5713 5716 5720 5723 5726 5729 5732 5735 5737 5740 5742 5745 5746 5748 5750 5752 5754 5755 5757 5759 5760 5762 5764
5684 5684 5685 5685 5685 5685 5685 5685 5685 5685 5685 5685 5686 5688 5689 5691 5692 5694 5696 5698 5701 5704 5707 5710 5714 5717 5720 5723 5725 5728 5730 5732 5735 5737 5739 5740 5742 5744 5746 5748 5749 5751 5753
5672 5673 5673 5673 5674 5674 5674 5674 5673 5673 5673 5674 5675 5676 5677 5678 5680 5682 5684 5686 5688 5691 5694 5697 5701 5704 5707 5710 5712 5714 5717 5720 5722 5725 5727 5728 5730 5732 5734 5736 5737 5739 5741
5660 5660 5661 5661 5662 5662 5662 5662 5661 5661 5661 5662 5663 5664 5665 5666 5668 5670 5672 5673 5675 5678 5680 5684 5687 5691 5694 5697 5699 5702 5704 5707 5709 5711 5714 5716 5718 5720 5721 5723 5725 5727 5728
5648 5649 5649 5650 5650 5650 5650 5649 5649 5649 5649 5650 5651 5652 5653 5654 5655 5657 5659 5661 5663 5665 5667 5670 5674 5677 5680 5683 5686 5688 5691 5694 5696 5698 5701 5703 5704 5707 5708 5710 5712 5714 5715